SWR92 LSZH-SBGR

Flight info

Callsign SWR92
Flight time N/A
Altitude 31000
Route VEBIT T50 ROTOS Z669 ULMES DCT VADAR DCT NINTU DCT MEBAK DCT REPSI DCT LERGA DCT MINSO DCT TIVLI DCT SURCO DCT ZAR35 DCT MOLIN DCT ORTOP DCT ERMED DCT TERTO/N0494F330 DCT ANARU DCT LIMAL/N0499F320 N873 IPERA/N0497F340 UN873 FEMUR DCT LIXAM/N0492F360 UZ72 VUKUB UZ80 ISNEM UZ61 REDAD UZ21 VUNOX
Aircraft B77W/H-SDE1E2E3FGHIJ2J3J4J5M1RWXY/LB1D1

Departure

Time N/A
Airport Zürich Airport (LSZH)

Arrival

Time 2026-05-01 11:45
Airport São Paulo/Guarulhos–Governor André Franco Montoro International Airport (SBGR)
Time Latitude Longitude Altitude Speed Heading
2026-04-30 22:55 47.46034 8.55833 1409 ft 0 kts
2026-05-01 07:23 1.76236 -31.17947 34906 ft 485 kts 209°
2026-05-01 07:24 1.67302 -31.22672 34909 ft 484 kts 209°
2026-05-01 07:24 1.61315 -31.25834 34896 ft 487 kts 208°
2026-05-01 07:25 1.55328 -31.28996 34906 ft 486 kts 209°
2026-05-01 07:25 1.49350 -31.32163 34918 ft 487 kts 209°
2026-05-01 07:26 1.43374 -31.35325 34907 ft 486 kts 209°
2026-05-01 07:26 1.37406 -31.38477 34903 ft 485 kts 209°
2026-05-01 07:27 1.31443 -31.41629 34902 ft 484 kts 208°
2026-05-01 07:27 1.25497 -31.44775 34910 ft 483 kts 209°
2026-05-01 07:28 1.19585 -31.47900 34911 ft 483 kts 209°
2026-05-01 07:28 1.13644 -31.51042 34902 ft 483 kts 209°
2026-05-01 07:29 1.07707 -31.54183 34904 ft 483 kts 208°
2026-05-01 07:29 1.01766 -31.57316 34913 ft 482 kts 208°
2026-05-01 07:30 0.95882 -31.60433 34909 ft 485 kts 208°
2026-05-01 07:30 0.89925 -31.63571 34903 ft 482 kts 208°
2026-05-01 07:31 0.84066 -31.66800 34903 ft 481 kts 208°
2026-05-01 07:32 0.69132 -31.74571 34913 ft 485 kts 208°
2026-05-01 07:33 0.60218 -31.79280 34904 ft 481 kts 208°
2026-05-01 07:33 0.51366 -31.83976 34900 ft 480 kts 208°
2026-05-01 07:34 0.42488 -31.88654 34911 ft 482 kts 208°
2026-05-01 07:35 0.36543 -31.91790 34917 ft 484 kts 208°
2026-05-01 07:35 0.30586 -31.94949 34913 ft 485 kts 208°
2026-05-01 07:36 0.24629 -31.98106 34907 ft 484 kts 208°
2026-05-01 07:36 0.18781 -32.01203 34906 ft 483 kts 208°
2026-05-01 07:37 0.09885 -32.05910 34914 ft 482 kts 208°
2026-05-01 07:37 0.03949 -32.09053 34908 ft 483 kts 208°
2026-05-01 07:38 -0.01966 -32.12186 34905 ft 482 kts 207°
2026-05-01 07:39 -0.10871 -32.16895 34907 ft 484 kts 207°
2026-05-01 07:39 -0.19816 -32.21631 34905 ft 485 kts 207°
2026-05-01 07:40 -0.25735 -32.24765 34911 ft 485 kts 207°
2026-05-01 07:40 -0.31683 -32.27911 34917 ft 484 kts 208°
2026-05-01 07:41 -0.37638 -32.31066 34916 ft 483 kts 207°
2026-05-01 07:42 -0.46542 -32.35781 34924 ft 483 kts 207°
2026-05-01 07:42 -0.52490 -32.38927 34914 ft 484 kts 207°
2026-05-01 07:43 -0.58435 -32.42070 34905 ft 484 kts 207°
2026-05-01 07:43 -0.67336 -32.46787 34911 ft 483 kts 207°
2026-05-01 07:44 -0.79201 -32.53066 34921 ft 483 kts 207°
2026-05-01 07:45 -0.85143 -32.56213 34922 ft 483 kts 207°
2026-05-01 07:45 -0.91090 -32.59362 34912 ft 484 kts 207°
2026-05-01 07:46 -0.97043 -32.62515 34910 ft 484 kts 207°
2026-05-01 07:47 -1.05947 -32.67228 34908 ft 483 kts 207°
2026-05-01 07:47 -1.11879 -32.70371 34916 ft 482 kts 207°
2026-05-01 07:48 -1.20773 -32.75079 34918 ft 483 kts 207°
2026-05-01 07:48 -1.26703 -32.78221 34922 ft 483 kts 207°
2026-05-01 07:49 -1.35576 -32.82921 34918 ft 483 kts 207°
2026-05-01 07:50 -1.41564 -32.86091 34924 ft 483 kts 207°
2026-05-01 07:50 -1.50434 -32.90789 34921 ft 483 kts 207°
2026-05-01 07:51 -1.56374 -32.93936 34920 ft 483 kts 207°
2026-05-01 07:52 -1.65286 -32.98660 34922 ft 483 kts 207°
2026-05-01 07:52 -1.71106 -33.01742 34921 ft 484 kts 207°
2026-05-01 07:53 -1.80041 -33.06477 34923 ft 485 kts 207°
2026-05-01 07:53 -1.85991 -33.09632 34917 ft 484 kts 207°
2026-05-01 07:55 -2.00845 -33.17506 34917 ft 483 kts 207°
2026-05-01 07:56 -2.15670 -33.25367 34925 ft 481 kts 207°
2026-05-01 07:57 -2.24545 -33.30071 34923 ft 481 kts 207°
2026-05-01 07:58 -2.36396 -33.36358 34925 ft 483 kts 207°
2026-05-01 07:59 -2.48275 -33.42660 34924 ft 483 kts 207°
2026-05-01 08:00 -2.66052 -33.52092 34928 ft 482 kts 207°
2026-05-01 08:01 -2.77909 -33.58353 34928 ft 482 kts 207°
2026-05-01 08:02 -2.86814 -33.63063 34928 ft 483 kts 207°
2026-05-01 08:03 -2.95744 -33.67785 34930 ft 484 kts 207°
2026-05-01 08:03 -3.04641 -33.72490 34929 ft 485 kts 207°
2026-05-01 08:04 -3.16567 -33.78800 34929 ft 485 kts 207°
2026-05-01 08:05 -3.24538 -33.83020 34925 ft 485 kts 207°
2026-05-01 08:06 -3.33477 -33.87751 34929 ft 485 kts 207°
2026-05-01 08:07 -3.45377 -33.94052 34926 ft 485 kts 207°
2026-05-01 08:08 -3.54329 -33.98792 34925 ft 485 kts 207°
2026-05-01 08:09 -3.65781 -34.05633 34919 ft 487 kts 219°
2026-05-01 08:09 -3.70845 -34.10151 34930 ft 488 kts 221°
2026-05-01 08:10 -3.80904 -34.19272 34927 ft 488 kts 221°
2026-05-01 08:11 -3.91023 -34.28342 34928 ft 488 kts 220°
2026-05-01 08:12 -3.98614 -34.35141 34929 ft 488 kts 220°
2026-05-01 08:13 -4.06180 -34.41925 34931 ft 488 kts 221°
2026-05-01 08:13 -4.13768 -34.48732 34934 ft 488 kts 221°
2026-05-01 08:14 -4.18825 -34.53268 34932 ft 488 kts 221°
2026-05-01 08:14 -4.23883 -34.57805 34928 ft 488 kts 220°
2026-05-01 08:15 -4.31461 -34.64605 34930 ft 487 kts 220°
2026-05-01 08:16 -4.36516 -34.69142 34929 ft 488 kts 220°
2026-05-01 08:16 -4.41570 -34.73680 34927 ft 488 kts 221°
2026-05-01 08:17 -4.46627 -34.78220 34931 ft 488 kts 220°
2026-05-01 08:17 -4.51676 -34.82755 34932 ft 487 kts 220°
2026-05-01 08:18 -4.56723 -34.87289 34933 ft 487 kts 220°
2026-05-01 08:19 -4.66816 -34.96360 34934 ft 487 kts 221°
2026-05-01 08:19 -4.71754 -35.00796 34931 ft 488 kts 220°
2026-05-01 08:20 -4.76802 -35.05332 34936 ft 488 kts 220°
2026-05-01 08:20 -4.81850 -35.09871 34934 ft 487 kts 220°
2026-05-01 08:21 -4.86861 -35.14382 34936 ft 487 kts 220°
2026-05-01 08:21 -4.91890 -35.18922 34934 ft 487 kts 220°
2026-05-01 08:22 -4.96935 -35.23453 34939 ft 487 kts 220°
2026-05-01 08:22 -5.01973 -35.27977 34935 ft 487 kts 221°
2026-05-01 08:23 -5.07022 -35.32517 34942 ft 488 kts 221°
2026-05-01 08:23 -5.12088 -35.37079 34944 ft 490 kts 221°
2026-05-01 08:24 -5.17161 -35.41651 34941 ft 491 kts 221°
2026-05-01 08:24 -5.22247 -35.46232 34939 ft 491 kts 221°
2026-05-01 08:25 -5.27316 -35.50805 34941 ft 489 kts 221°
2026-05-01 08:25 -5.32332 -35.55394 34941 ft 487 kts 223°
2026-05-01 08:26 -5.37389 -35.59910 34952 ft 487 kts 220°
2026-05-01 08:26 -5.42459 -35.64432 34944 ft 489 kts 221°
2026-05-01 08:27 -5.47521 -35.68995 34963 ft 490 kts 221°
2026-05-01 08:27 -5.52593 -35.73588 34960 ft 492 kts 221°
2026-05-01 08:28 -5.57684 -35.78186 34958 ft 493 kts 221°
2026-05-01 08:28 -5.62787 -35.82788 34968 ft 494 kts 221°
2026-05-01 08:29 -5.67896 -35.87399 34967 ft 494 kts 221°
2026-05-01 08:29 -5.73004 -35.92013 34966 ft 494 kts 221°
2026-05-01 08:30 -5.78107 -35.96623 34963 ft 490 kts 221°
2026-05-01 08:30 -5.80610 -35.98884 34956 ft 478 kts 221°
2026-05-01 08:30 -5.82942 -36.00990 34961 ft 471 kts 221°
2026-05-01 08:31 -5.87790 -36.05368 34965 ft 467 kts 222°
2026-05-01 08:31 -5.92609 -36.09723 34981 ft 466 kts 222°
2026-05-01 08:32 -5.97421 -36.14074 34981 ft 465 kts 222°
2026-05-01 08:32 -6.02224 -36.18417 34990 ft 466 kts 222°
2026-05-01 08:33 -6.07012 -36.22749 34992 ft 466 kts 222°
2026-05-01 08:33 -6.11828 -36.27107 34990 ft 466 kts 222°
2026-05-01 08:34 -6.16641 -36.31461 34987 ft 466 kts 222°
2026-05-01 08:34 -6.21843 -36.35345 34994 ft 467 kts 211°
2026-05-01 08:35 -6.27513 -36.38532 34993 ft 467 kts 210°
2026-05-01 08:35 -6.33164 -36.41751 34987 ft 467 kts 211°
2026-05-01 08:36 -6.38813 -36.45006 35001 ft 467 kts 211°
2026-05-01 08:36 -6.44453 -36.48243 34987 ft 467 kts 211°
2026-05-01 08:37 -6.50097 -36.51485 34994 ft 467 kts 211°
2026-05-01 08:37 -6.55742 -36.54731 35002 ft 468 kts 211°
2026-05-01 08:38 -6.61390 -36.57977 34988 ft 468 kts 211°
2026-05-01 08:38 -6.67080 -36.61166 34986 ft 467 kts 210°
2026-05-01 08:39 -6.72745 -36.64365 34998 ft 468 kts 211°
2026-05-01 08:39 -6.78391 -36.67632 34992 ft 469 kts 211°
2026-05-01 08:40 -6.86894 -36.72541 35002 ft 471 kts 210°
2026-05-01 08:40 -6.92592 -36.75821 34998 ft 471 kts 211°
2026-05-01 08:41 -6.98278 -36.79095 34997 ft 470 kts 211°
2026-05-01 08:41 -7.03935 -36.82353 34992 ft 469 kts 212°
2026-05-01 08:42 -7.09599 -36.85617 35001 ft 469 kts 212°
2026-05-01 08:42 -7.15242 -36.88882 35013 ft 468 kts 212°
2026-05-01 08:43 -7.20886 -36.92174 35016 ft 469 kts 211°
2026-05-01 08:43 -7.26534 -36.95465 35005 ft 469 kts 211°
2026-05-01 08:44 -7.32189 -36.98757 35014 ft 470 kts 211°
2026-05-01 08:44 -7.37739 -37.01967 35017 ft 470 kts 211°
2026-05-01 08:45 -7.43418 -37.05244 35017 ft 471 kts 211°
2026-05-01 08:45 -7.49102 -37.08526 35018 ft 470 kts 211°
2026-05-01 08:46 -7.54774 -37.11808 35024 ft 470 kts 211°
2026-05-01 08:46 -7.60405 -37.15066 35018 ft 470 kts 211°
2026-05-01 08:47 -7.66071 -37.18345 35025 ft 470 kts 211°
2026-05-01 08:47 -7.71733 -37.21623 35024 ft 469 kts 211°
2026-05-01 08:48 -7.77397 -37.24904 35037 ft 469 kts 211°
2026-05-01 08:48 -7.83061 -37.28185 35028 ft 469 kts 211°
2026-05-01 08:49 -7.88718 -37.31461 35027 ft 469 kts 211°
2026-05-01 08:49 -7.94374 -37.34739 35028 ft 468 kts 211°
2026-05-01 08:50 -7.99065 -37.37459 35028 ft 468 kts 211°
2026-05-01 08:50 -8.04695 -37.40728 35028 ft 467 kts 211°
2026-05-01 08:51 -8.10334 -37.43998 35030 ft 467 kts 211°
2026-05-01 08:51 -8.15965 -37.47263 35035 ft 467 kts 211°
2026-05-01 08:52 -8.21598 -37.50537 35033 ft 467 kts 211°
2026-05-01 08:52 -8.27228 -37.53812 35026 ft 467 kts 211°
2026-05-01 08:53 -8.32850 -37.57079 35026 ft 466 kts 211°
2026-05-01 08:53 -8.38467 -37.60343 35026 ft 466 kts 211°
2026-05-01 08:54 -8.44080 -37.63609 35030 ft 465 kts 211°
2026-05-01 08:54 -8.49692 -37.66875 35027 ft 465 kts 211°
2026-05-01 08:55 -8.55303 -37.70140 35027 ft 466 kts 211°
2026-05-01 08:55 -8.60915 -37.73407 35032 ft 465 kts 211°
2026-05-01 08:56 -8.66518 -37.76673 35023 ft 464 kts 211°
2026-05-01 08:56 -8.72101 -37.79927 35023 ft 463 kts 211°
2026-05-01 08:57 -8.77676 -37.83176 35026 ft 462 kts 210°
2026-05-01 08:57 -8.83252 -37.86426 35026 ft 462 kts 211°
2026-05-01 08:58 -8.88818 -37.89675 35025 ft 462 kts 210°
2026-05-01 08:58 -8.94389 -37.92927 35027 ft 463 kts 211°
2026-05-01 08:59 -8.99967 -37.96184 35028 ft 463 kts 210°
2026-05-01 08:59 -9.05534 -37.99433 35020 ft 463 kts 210°
2026-05-01 09:00 -9.10971 -38.02612 35029 ft 462 kts 210°
2026-05-01 09:00 -9.16530 -38.05856 35018 ft 461 kts 210°
2026-05-01 09:01 -9.22089 -38.09082 35006 ft 461 kts 210°
2026-05-01 09:01 -9.27648 -38.12305 35005 ft 460 kts 210°
2026-05-01 09:02 -9.33202 -38.15533 34999 ft 460 kts 210°
2026-05-01 09:02 -9.38761 -38.18764 34991 ft 461 kts 210°
2026-05-01 09:03 -9.44322 -38.21999 34999 ft 461 kts 210°
2026-05-01 09:03 -9.49891 -38.25240 34994 ft 462 kts 210°
2026-05-01 09:04 -9.55454 -38.28478 34999 ft 461 kts 210°
2026-05-01 09:04 -9.61004 -38.31710 35017 ft 460 kts 210°
2026-05-01 09:05 -9.66555 -38.34943 35022 ft 460 kts 210°
2026-05-01 09:05 -9.72059 -38.38151 35034 ft 459 kts 210°
2026-05-01 09:06 -9.77590 -38.41378 35049 ft 459 kts 210°
2026-05-01 09:06 -9.83114 -38.44620 35047 ft 459 kts 210°
2026-05-01 09:07 -9.88643 -38.47871 35040 ft 459 kts 210°
2026-05-01 09:07 -9.94165 -38.51121 35051 ft 458 kts 210°
2026-05-01 09:08 -9.99674 -38.54362 35048 ft 458 kts 210°
2026-05-01 09:08 -10.05175 -38.57600 35047 ft 458 kts 209°
2026-05-01 09:09 -10.10687 -38.60845 35049 ft 458 kts 210°
2026-05-01 09:09 -10.16200 -38.64090 35048 ft 458 kts 209°
2026-05-01 09:10 -10.21710 -38.67334 35044 ft 458 kts 210°
2026-05-01 09:10 -10.27226 -38.70585 35054 ft 459 kts 210°
2026-05-01 09:11 -10.32755 -38.73845 35058 ft 461 kts 209°
2026-05-01 09:11 -10.38308 -38.77121 35056 ft 462 kts 209°
2026-05-01 09:12 -10.43860 -38.80396 35050 ft 462 kts 209°
2026-05-01 09:12 -10.49421 -38.83680 35053 ft 462 kts 209°
2026-05-01 09:13 -10.54974 -38.86960 35046 ft 461 kts 209°
2026-05-01 09:13 -10.60524 -38.90238 35049 ft 461 kts 209°
2026-05-01 09:14 -10.66067 -38.93513 35052 ft 461 kts 209°
2026-05-01 09:14 -10.71601 -38.96785 35048 ft 460 kts 209°
2026-05-01 09:15 -10.77081 -39.00027 35053 ft 460 kts 209°
2026-05-01 09:15 -10.82570 -39.03274 35051 ft 460 kts 209°
2026-05-01 09:16 -10.88061 -39.06526 35052 ft 460 kts 209°
2026-05-01 09:17 -10.96353 -39.11440 35052 ft 460 kts 209°
2026-05-01 09:17 -11.04639 -39.16350 35053 ft 460 kts 209°
2026-05-01 09:18 -11.12931 -39.21269 35054 ft 460 kts 208°
2026-05-01 09:19 -11.21232 -39.26197 35053 ft 460 kts 208°
2026-05-01 09:20 -11.29528 -39.31122 35055 ft 460 kts 208°
2026-05-01 09:21 -11.40598 -39.37704 35055 ft 461 kts 208°
2026-05-01 09:21 -11.48904 -39.42647 35058 ft 461 kts 208°
2026-05-01 09:22 -11.59976 -39.49238 35054 ft 461 kts 208°
2026-05-01 09:23 -11.68271 -39.54182 35061 ft 460 kts 208°
2026-05-01 09:24 -11.76564 -39.59128 35059 ft 460 kts 208°
2026-05-01 09:25 -11.87606 -39.65759 35061 ft 460 kts 208°
2026-05-01 09:26 -11.95899 -39.70717 35062 ft 460 kts 208°
2026-05-01 09:26 -12.04187 -39.75651 35063 ft 460 kts 208°
2026-05-01 09:27 -12.12488 -39.80606 35068 ft 460 kts 208°
2026-05-01 09:28 -12.18015 -39.83910 35063 ft 461 kts 208°
2026-05-01 09:28 -12.23551 -39.87220 35065 ft 461 kts 208°
2026-05-01 09:29 -12.31854 -39.92187 35065 ft 461 kts 208°
2026-05-01 09:30 -12.40154 -39.97154 35061 ft 461 kts 208°
2026-05-01 09:30 -12.48282 -40.02023 35069 ft 461 kts 208°
2026-05-01 09:31 -12.53819 -40.05342 35070 ft 461 kts 208°
2026-05-01 09:32 -12.62132 -40.10328 35073 ft 462 kts 208°
2026-05-01 09:32 -12.70454 -40.15324 35081 ft 462 kts 208°
2026-05-01 09:33 -12.75997 -40.18654 35085 ft 462 kts 208°
2026-05-01 09:34 -12.84312 -40.23652 35086 ft 462 kts 208°
2026-05-01 09:34 -12.92637 -40.28659 35085 ft 462 kts 208°
2026-05-01 09:35 -13.00011 -40.33101 35092 ft 462 kts 208°
2026-05-01 09:36 -13.05549 -40.36433 35104 ft 462 kts 208°
2026-05-01 09:36 -13.11097 -40.39777 35098 ft 462 kts 208°
2026-05-01 09:37 -13.16645 -40.43123 35101 ft 463 kts 208°
2026-05-01 09:37 -13.24978 -40.48154 35101 ft 463 kts 208°
2026-05-01 09:38 -13.33313 -40.53186 35100 ft 463 kts 208°
2026-05-01 09:39 -13.41644 -40.58224 35106 ft 463 kts 208°
2026-05-01 09:39 -13.47196 -40.61584 35105 ft 463 kts 208°
2026-05-01 09:40 -13.55519 -40.66623 35103 ft 463 kts 208°
2026-05-01 09:41 -13.61072 -40.69985 35105 ft 463 kts 208°
2026-05-01 09:41 -13.69410 -40.75041 35104 ft 464 kts 208°
2026-05-01 09:42 -13.74926 -40.78388 35099 ft 463 kts 208°
2026-05-01 09:43 -13.86031 -40.85130 35102 ft 464 kts 208°
2026-05-01 09:43 -13.91587 -40.88506 35103 ft 464 kts 208°
2026-05-01 09:44 -13.99917 -40.93574 35103 ft 464 kts 208°
2026-05-01 09:45 -14.05465 -40.96951 35109 ft 464 kts 208°
2026-05-01 09:45 -14.13673 -41.01951 35176 ft 468 kts 208°
2026-05-01 09:46 -14.16479 -41.03660 35517 ft 467 kts 208°
2026-05-01 09:46 -14.19265 -41.05359 36000 ft 464 kts 209°
2026-05-01 09:46 -14.22028 -41.07045 36495 ft 460 kts 209°
2026-05-01 09:46 -14.24774 -41.08721 36956 ft 457 kts 209°
2026-05-01 09:47 -14.27512 -41.10392 37127 ft 460 kts 209°
2026-05-01 09:47 -14.30278 -41.12080 37114 ft 462 kts 209°
2026-05-01 09:47 -14.35785 -41.15443 37105 ft 457 kts 209°
2026-05-01 09:48 -14.41228 -41.18768 37106 ft 453 kts 209°
2026-05-01 09:48 -14.46647 -41.22083 37117 ft 452 kts 209°
2026-05-01 09:49 -14.52057 -41.25395 37119 ft 452 kts 209°
2026-05-01 09:49 -14.57478 -41.28710 37124 ft 453 kts 209°
2026-05-01 09:50 -14.62913 -41.32037 37129 ft 455 kts 209°
2026-05-01 09:50 -14.68368 -41.35377 37123 ft 457 kts 210°
2026-05-01 09:51 -14.73846 -41.38738 37129 ft 459 kts 210°
2026-05-01 09:51 -14.79341 -41.42110 37135 ft 460 kts 210°
2026-05-01 09:52 -14.84849 -41.45490 37131 ft 460 kts 210°
2026-05-01 09:52 -14.90357 -41.48873 37132 ft 460 kts 210°
2026-05-01 09:53 -14.95850 -41.52248 37128 ft 458 kts 210°
2026-05-01 09:53 -15.01272 -41.55584 37138 ft 457 kts 210°
2026-05-01 09:54 -15.06728 -41.58943 37131 ft 455 kts 210°
2026-05-01 09:54 -15.12165 -41.62289 37136 ft 454 kts 210°
2026-05-01 09:55 -15.17599 -41.65636 37152 ft 454 kts 210°
2026-05-01 09:55 -15.23021 -41.68980 37146 ft 454 kts 210°
2026-05-01 09:56 -15.28450 -41.72329 37149 ft 454 kts 210°
2026-05-01 09:56 -15.33878 -41.75679 37152 ft 454 kts 210°
2026-05-01 09:57 -15.39306 -41.79030 37156 ft 454 kts 210°
2026-05-01 09:57 -15.44687 -41.82354 37145 ft 447 kts 210°
2026-05-01 09:58 -15.49990 -41.85636 37144 ft 441 kts 210°
2026-05-01 09:58 -15.55239 -41.88883 37144 ft 437 kts 210°
2026-05-01 09:59 -15.60473 -41.92123 37166 ft 440 kts 210°
2026-05-01 09:59 -15.65721 -41.95373 37160 ft 444 kts 210°
2026-05-01 10:00 -15.71029 -41.98664 37162 ft 445 kts 210°
2026-05-01 10:00 -15.76229 -42.01888 37151 ft 446 kts 210°
2026-05-01 10:01 -15.81548 -42.05190 37146 ft 445 kts 210°
2026-05-01 10:01 -15.86851 -42.08482 37151 ft 443 kts 210°
2026-05-01 10:02 -15.92120 -42.11757 37145 ft 440 kts 210°
2026-05-01 10:02 -15.97359 -42.15016 37145 ft 438 kts 210°
2026-05-01 10:03 -16.02572 -42.18258 37140 ft 437 kts 210°
2026-05-01 10:03 -16.07786 -42.21505 37156 ft 439 kts 210°
2026-05-01 10:04 -16.13060 -42.24790 37147 ft 444 kts 210°
2026-05-01 10:04 -16.18575 -42.27659 37142 ft 444 kts 199°
2026-05-01 10:05 -16.24376 -42.29859 37140 ft 444 kts 199°
2026-05-01 10:05 -16.30179 -42.32036 37146 ft 443 kts 199°
2026-05-01 10:06 -16.35948 -42.34242 37134 ft 441 kts 199°
2026-05-01 10:06 -16.41691 -42.36455 37138 ft 439 kts 199°
2026-05-01 10:07 -16.47407 -42.38661 37137 ft 437 kts 199°
2026-05-01 10:07 -16.53112 -42.40861 37140 ft 436 kts 199°
2026-05-01 10:08 -16.61646 -42.44140 37145 ft 436 kts 199°
2026-05-01 10:09 -16.67340 -42.46318 37148 ft 436 kts 199°
2026-05-01 10:09 -16.73000 -42.48497 37150 ft 437 kts 199°
2026-05-01 10:10 -16.78715 -42.50702 37147 ft 438 kts 199°
2026-05-01 10:10 -16.87318 -42.54018 37155 ft 440 kts 199°
2026-05-01 10:11 -16.93069 -42.56238 37143 ft 441 kts 199°
2026-05-01 10:11 -16.98825 -42.58462 37152 ft 442 kts 200°
2026-05-01 10:12 -17.03604 -42.60308 37155 ft 441 kts 200°
2026-05-01 10:13 -17.13208 -42.64024 37156 ft 440 kts 200°
2026-05-01 10:13 -17.18940 -42.66242 37158 ft 439 kts 200°
2026-05-01 10:14 -17.27510 -42.69564 37156 ft 438 kts 200°
2026-05-01 10:14 -17.33219 -42.71775 37157 ft 437 kts 200°
2026-05-01 10:15 -17.38924 -42.73990 37166 ft 438 kts 200°
2026-05-01 10:15 -17.44590 -42.76209 37167 ft 438 kts 202°
2026-05-01 10:16 -17.49939 -42.79251 37175 ft 439 kts 214°
2026-05-01 10:17 -17.57154 -42.85176 37170 ft 441 kts 218°
2026-05-01 10:17 -17.64343 -42.91225 37171 ft 443 kts 218°
2026-05-01 10:18 -17.71592 -42.97270 37171 ft 444 kts 218°
2026-05-01 10:19 -17.76319 -43.01211 37174 ft 444 kts 218°
2026-05-01 10:19 -17.81157 -43.05246 37169 ft 444 kts 218°
2026-05-01 10:20 -17.88401 -43.11291 37172 ft 442 kts 218°
2026-05-01 10:20 -17.93208 -43.15309 37175 ft 441 kts 218°
2026-05-01 10:21 -18.00385 -43.21314 37180 ft 439 kts 218°
2026-05-01 10:22 -18.07543 -43.27306 37188 ft 437 kts 219°
2026-05-01 10:23 -18.13864 -43.32607 37188 ft 436 kts 219°
2026-05-01 10:23 -18.20967 -43.38566 37183 ft 435 kts 219°
2026-05-01 10:24 -18.31232 -43.45294 37193 ft 437 kts 208°
2026-05-01 10:25 -18.42014 -43.51330 37191 ft 440 kts 209°
2026-05-01 10:26 -18.47412 -43.54391 37197 ft 441 kts 209°
2026-05-01 10:27 -18.58234 -43.60521 37185 ft 441 kts 209°
2026-05-01 10:28 -18.66305 -43.65098 37199 ft 440 kts 209°
2026-05-01 10:28 -18.74418 -43.69705 37177 ft 439 kts 209°
2026-05-01 10:29 -18.82428 -43.74256 37170 ft 437 kts 209°
2026-05-01 10:30 -18.93107 -43.80332 37181 ft 436 kts 209°
2026-05-01 10:31 -19.03775 -43.86411 37172 ft 436 kts 209°
2026-05-01 10:32 -19.11801 -43.90992 37177 ft 438 kts 209°
2026-05-01 10:33 -19.22535 -43.97126 37171 ft 440 kts 209°
2026-05-01 10:34 -19.30516 -44.01693 37180 ft 440 kts 209°
2026-05-01 10:34 -19.35897 -44.04774 37186 ft 439 kts 209°
2026-05-01 10:35 -19.43946 -44.09388 37167 ft 438 kts 209°
2026-05-01 10:35 -19.49305 -44.12461 37172 ft 437 kts 209°
2026-05-01 10:36 -19.57329 -44.17071 37172 ft 437 kts 210°
2026-05-01 10:37 -19.62675 -44.20143 37176 ft 437 kts 210°
2026-05-01 10:37 -19.70694 -44.24760 37176 ft 437 kts 210°
2026-05-01 10:38 -19.76039 -44.27839 37181 ft 437 kts 210°
2026-05-01 10:38 -19.81353 -44.30902 37177 ft 437 kts 210°
2026-05-01 10:39 -19.86699 -44.33984 37178 ft 437 kts 210°
2026-05-01 10:39 -19.92045 -44.37070 37189 ft 437 kts 210°
2026-05-01 10:40 -19.97391 -44.40159 37182 ft 437 kts 210°
2026-05-01 10:40 -20.02722 -44.43243 37182 ft 437 kts 210°
2026-05-01 10:41 -20.08064 -44.46335 37181 ft 437 kts 210°
2026-05-01 10:42 -20.15909 -44.51223 37191 ft 434 kts 217°
2026-05-01 10:42 -20.20774 -44.55033 37179 ft 434 kts 218°
2026-05-01 10:43 -20.25598 -44.58832 37187 ft 434 kts 218°
2026-05-01 10:43 -20.30463 -44.62636 37178 ft 434 kts 218°
2026-05-01 10:44 -20.35340 -44.66436 37179 ft 434 kts 218°
2026-05-01 10:44 -20.40203 -44.70228 37183 ft 433 kts 218°
2026-05-01 10:45 -20.45071 -44.74029 37186 ft 433 kts 218°
2026-05-01 10:45 -20.49933 -44.77827 37188 ft 433 kts 218°
2026-05-01 10:46 -20.54791 -44.81628 37189 ft 433 kts 218°
2026-05-01 10:46 -20.59652 -44.85431 37180 ft 433 kts 218°
2026-05-01 10:47 -20.64468 -44.89202 37164 ft 425 kts 219°
2026-05-01 10:47 -20.69211 -44.92926 37180 ft 422 kts 219°
2026-05-01 10:48 -20.73928 -44.96626 37181 ft 420 kts 219°
2026-05-01 10:48 -20.78547 -45.00251 37183 ft 419 kts 219°
2026-05-01 10:49 -20.83236 -45.03931 37187 ft 418 kts 219°
2026-05-01 10:49 -20.87913 -45.07609 37187 ft 418 kts 219°
2026-05-01 10:50 -20.92596 -45.11287 37181 ft 418 kts 219°
2026-05-01 10:50 -20.97285 -45.14974 37184 ft 418 kts 219°
2026-05-01 10:51 -21.01964 -45.18658 37184 ft 419 kts 219°
2026-05-01 10:51 -21.06669 -45.22368 37184 ft 420 kts 219°
2026-05-01 10:52 -21.11374 -45.26078 37187 ft 420 kts 219°
2026-05-01 10:52 -21.16079 -45.29791 37182 ft 421 kts 219°
2026-05-01 10:53 -21.20755 -45.33485 37181 ft 420 kts 219°
2026-05-01 10:53 -21.25463 -45.37208 37182 ft 420 kts 219°
2026-05-01 10:54 -21.30165 -45.40929 37189 ft 420 kts 219°
2026-05-01 10:54 -21.34867 -45.44651 37178 ft 420 kts 219°
2026-05-01 10:55 -21.39558 -45.48369 37180 ft 419 kts 219°
2026-05-01 10:55 -21.44237 -45.52080 37178 ft 418 kts 219°
2026-05-01 10:56 -21.48905 -45.55787 37181 ft 417 kts 219°
2026-05-01 10:56 -21.53578 -45.59476 37177 ft 416 kts 219°
2026-05-01 10:57 -21.58254 -45.63140 37189 ft 416 kts 219°
2026-05-01 10:57 -21.62934 -45.66815 37176 ft 417 kts 219°
2026-05-01 10:58 -21.67618 -45.70500 37179 ft 417 kts 219°
2026-05-01 10:58 -21.72295 -45.74184 37179 ft 417 kts 219°
2026-05-01 10:59 -21.76928 -45.77834 36850 ft 407 kts 219°
2026-05-01 10:59 -21.79216 -45.79637 36224 ft 409 kts 219°
2026-05-01 10:59 -21.81532 -45.81468 35431 ft 416 kts 219°
2026-05-01 10:59 -21.83885 -45.83329 34708 ft 422 kts 219°
2026-05-01 11:00 -21.86263 -45.85209 34035 ft 426 kts 219°
2026-05-01 11:00 -21.88658 -45.87101 33341 ft 429 kts 219°
2026-05-01 11:00 -21.91072 -45.89008 32692 ft 431 kts 219°
2026-05-01 11:00 -21.93488 -45.90917 32085 ft 431 kts 219°
2026-05-01 11:01 -21.95909 -45.92832 31432 ft 433 kts 219°
2026-05-01 11:01 -21.98312 -45.94734 30740 ft 436 kts 219°
2026-05-01 11:01 -22.00788 -45.96695 29993 ft 439 kts 219°
2026-05-01 11:01 -22.03261 -45.98653 29190 ft 442 kts 219°
2026-05-01 11:02 -22.05597 -46.00505 28471 ft 444 kts 219°
2026-05-01 11:02 -22.08122 -46.02508 27731 ft 445 kts 219°
2026-05-01 11:02 -22.10590 -46.04466 26984 ft 447 kts 218°
2026-05-01 11:02 -22.13097 -46.06456 26202 ft 449 kts 218°
2026-05-01 11:03 -22.15625 -46.08464 25441 ft 452 kts 218°
2026-05-01 11:03 -22.18149 -46.10466 24866 ft 449 kts 218°
2026-05-01 11:03 -22.20655 -46.12451 24399 ft 444 kts 218°
2026-05-01 11:03 -22.23130 -46.14413 23938 ft 439 kts 218°
2026-05-01 11:04 -22.25587 -46.16362 23357 ft 436 kts 218°
2026-05-01 11:04 -22.28022 -46.18293 22784 ft 432 kts 218°
2026-05-01 11:04 -22.30587 -46.19994 22207 ft 436 kts 208°
2026-05-01 11:04 -22.33384 -46.21242 21858 ft 435 kts 201°
2026-05-01 11:05 -22.36288 -46.22097 21565 ft 432 kts 192°
2026-05-01 11:05 -22.39257 -46.22574 21215 ft 430 kts 190°
2026-05-01 11:05 -22.42222 -46.22990 20846 ft 428 kts 189°
2026-05-01 11:05 -22.45171 -46.23408 20465 ft 427 kts 190°
2026-05-01 11:06 -22.48108 -46.23845 20112 ft 425 kts 190°
2026-05-01 11:06 -22.51025 -46.24295 19780 ft 423 kts 190°
2026-05-01 11:06 -22.53933 -46.24751 19450 ft 421 kts 190°
2026-05-01 11:07 -22.59702 -46.25650 18807 ft 417 kts 190°
2026-05-01 11:07 -22.62571 -46.26097 18482 ft 415 kts 190°
2026-05-01 11:07 -22.65424 -46.26540 18149 ft 413 kts 190°
2026-05-01 11:07 -22.68263 -46.26981 17794 ft 411 kts 190°
2026-05-01 11:08 -22.71088 -46.27420 17452 ft 410 kts 190°
2026-05-01 11:08 -22.73906 -46.27859 17106 ft 408 kts 190°
2026-05-01 11:08 -22.79325 -46.29457 16480 ft 402 kts 204°
2026-05-01 11:09 -22.81811 -46.30786 16186 ft 396 kts 213°
2026-05-01 11:09 -22.83828 -46.32770 15725 ft 394 kts 236°
2026-05-01 11:09 -22.84699 -46.34486 15485 ft 392 kts 249°
2026-05-01 11:10 -22.85100 -46.41158 15224 ft 384 kts 284°
2026-05-01 11:10 -22.84212 -46.43871 15200 ft 384 kts 290°
2026-05-01 11:10 -22.83497 -46.46685 15190 ft 391 kts 280°
2026-05-01 11:10 -22.83117 -46.49607 15195 ft 391 kts 277°
2026-05-01 11:11 -22.82784 -46.52523 15180 ft 389 kts 276°
2026-05-01 11:11 -22.82674 -46.54494 15170 ft 388 kts 270°
2026-05-01 11:11 -22.82871 -46.57400 15194 ft 386 kts 264°
2026-05-01 11:11 -22.83145 -46.60290 15185 ft 386 kts 265°
2026-05-01 11:12 -22.83451 -46.63175 15184 ft 386 kts 260°
2026-05-01 11:12 -22.84151 -46.65991 15184 ft 387 kts 252°
2026-05-01 11:12 -22.85040 -46.68749 15183 ft 388 kts 252°
2026-05-01 11:12 -22.85929 -46.71511 15182 ft 389 kts 249°
2026-05-01 11:13 -22.87134 -46.74140 15166 ft 390 kts 239°
2026-05-01 11:13 -22.88902 -46.76283 15184 ft 391 kts 216°
2026-05-01 11:13 -22.91372 -46.77500 15182 ft 395 kts 193°
2026-05-01 11:13 -22.94113 -46.77548 15103 ft 397 kts 170°
2026-05-01 11:14 -22.96667 -46.76464 14710 ft 397 kts 147°
2026-05-01 11:14 -22.98781 -46.74565 14190 ft 392 kts 139°
2026-05-01 11:14 -23.00864 -46.72640 13642 ft 396 kts 141°
2026-05-01 11:14 -23.02996 -46.70766 13277 ft 392 kts 141°
2026-05-01 11:15 -23.05109 -46.68925 12969 ft 387 kts 141°
2026-05-01 11:15 -23.07193 -46.67098 12620 ft 384 kts 141°
2026-05-01 11:15 -23.09257 -46.65272 12221 ft 382 kts 141°
2026-05-01 11:15 -23.11314 -46.63449 11862 ft 381 kts 141°
2026-05-01 11:16 -23.13357 -46.61633 11498 ft 378 kts 141°
2026-05-01 11:16 -23.15390 -46.59827 11153 ft 376 kts 141°
2026-05-01 11:16 -23.17421 -46.58075 10761 ft 367 kts 147°
2026-05-01 11:16 -23.19759 -46.56991 10251 ft 368 kts 170°
2026-05-01 11:17 -23.22297 -46.56942 9882 ft 365 kts 189°
2026-05-01 11:17 -23.24712 -46.57691 9521 ft 360 kts 206°
2026-05-01 11:17 -23.26860 -46.59074 9109 ft 358 kts 214°
2026-05-01 11:17 -23.28877 -46.60556 8906 ft 336 kts 215°
2026-05-01 11:18 -23.30732 -46.61925 8714 ft 310 kts 215°
2026-05-01 11:18 -23.32459 -46.63186 8513 ft 288 kts 214°
2026-05-01 11:18 -23.34096 -46.64367 8285 ft 282 kts 214°
2026-05-01 11:18 -23.35728 -46.65537 8242 ft 280 kts 214°
2026-05-01 11:19 -23.37343 -46.66688 8226 ft 277 kts 214°
2026-05-01 11:19 -23.38958 -46.67837 8206 ft 275 kts 214°
2026-05-01 11:19 -23.40554 -46.68974 8173 ft 273 kts 214°
2026-05-01 11:19 -23.42140 -46.70103 8149 ft 271 kts 214°
2026-05-01 11:20 -23.43601 -46.71342 8039 ft 264 kts 233°
2026-05-01 11:20 -23.44370 -46.73107 7949 ft 258 kts 263°
2026-05-01 11:20 -23.44296 -46.75018 7874 ft 252 kts 288°
2026-05-01 11:20 -23.43489 -46.76684 7757 ft 249 kts 313°
2026-05-01 11:21 -23.42123 -46.77810 7615 ft 248 kts 338°
2026-05-01 11:21 -23.40451 -46.78191 7501 ft 248 kts
2026-05-01 11:21 -23.38762 -46.77860 7384 ft 248 kts 24°
2026-05-01 11:21 -23.37293 -46.76885 7276 ft 249 kts 32°
2026-05-01 11:22 -23.35850 -46.75838 7193 ft 249 kts 32°
2026-05-01 11:22 -23.34407 -46.74802 7131 ft 248 kts 32°
2026-05-01 11:22 -23.32969 -46.73777 7052 ft 248 kts 32°
2026-05-01 11:22 -23.31567 -46.72684 6955 ft 248 kts 44°
2026-05-01 11:23 -23.30663 -46.71092 6841 ft 252 kts 72°
2026-05-01 11:23 -23.30496 -46.69204 6748 ft 254 kts 96°
2026-05-01 11:23 -23.31070 -46.67391 6643 ft 257 kts 122°
2026-05-01 11:23 -23.32307 -46.66029 6544 ft 260 kts 149°
2026-05-01 11:24 -23.34027 -46.65412 6496 ft 260 kts 178°
2026-05-01 11:24 -23.35794 -46.65684 6315 ft 262 kts 203°
2026-05-01 11:24 -23.38866 -46.67772 6107 ft 262 kts 214°
2026-05-01 11:25 -23.40380 -46.68849 6009 ft 258 kts 213°
2026-05-01 11:25 -23.43338 -46.71042 5953 ft 255 kts 227°
2026-05-01 11:25 -23.44199 -46.72687 5989 ft 253 kts 260°
2026-05-01 11:26 -23.44171 -46.74588 5979 ft 253 kts 290°
2026-05-01 11:26 -23.41889 -46.77201 5952 ft 241 kts 346°
2026-05-01 11:26 -23.40252 -46.77333 5974 ft 237 kts
2026-05-01 11:27 -23.38697 -46.76761 5958 ft 237 kts 29°
2026-05-01 11:27 -23.37293 -46.75793 5967 ft 241 kts 33°
2026-05-01 11:27 -23.35890 -46.74770 5981 ft 245 kts 33°
2026-05-01 11:27 -23.34465 -46.73737 5962 ft 244 kts 32°
2026-05-01 11:28 -23.33060 -46.72727 5947 ft 240 kts 33°
2026-05-01 11:28 -23.31906 -46.71467 5951 ft 238 kts 60°
2026-05-01 11:28 -23.31439 -46.69723 5966 ft 248 kts 86°
2026-05-01 11:29 -23.32824 -46.66368 5975 ft 257 kts 144°
2026-05-01 11:29 -23.34440 -46.65565 5941 ft 258 kts 173°
2026-05-01 11:29 -23.37689 -46.66934 5991 ft 259 kts 215°
2026-05-01 11:30 -23.39195 -46.68017 5965 ft 264 kts 214°
2026-05-01 11:30 -23.40745 -46.69112 5942 ft 261 kts 214°
2026-05-01 11:30 -23.42257 -46.70183 5957 ft 259 kts 213°
2026-05-01 11:30 -23.43629 -46.71399 5951 ft 252 kts 237°
2026-05-01 11:31 -23.44263 -46.73116 5990 ft 252 kts 267°
2026-05-01 11:31 -23.44036 -46.75009 5978 ft 250 kts 296°
2026-05-01 11:31 -23.43056 -46.76499 5969 ft 244 kts 323°
2026-05-01 11:31 -23.41572 -46.77312 5958 ft 239 kts 350°
2026-05-01 11:32 -23.39937 -46.77326 5964 ft 236 kts 12°
2026-05-01 11:32 -23.38431 -46.76655 5975 ft 234 kts 31°
2026-05-01 11:32 -23.37050 -46.75679 5965 ft 239 kts 33°
2026-05-01 11:32 -23.35653 -46.74657 5975 ft 245 kts 32°
2026-05-01 11:33 -23.34243 -46.73638 5963 ft 242 kts 32°
2026-05-01 11:33 -23.32847 -46.72633 5942 ft 238 kts 35°
2026-05-01 11:33 -23.31765 -46.71291 5958 ft 240 kts 63°
2026-05-01 11:33 -23.31387 -46.69511 5962 ft 248 kts 89°
2026-05-01 11:34 -23.31786 -46.67672 5955 ft 256 kts 116°
2026-05-01 11:34 -23.32960 -46.66214 5979 ft 262 kts 146°
2026-05-01 11:34 -23.34671 -46.65585 5957 ft 262 kts 179°
2026-05-01 11:34 -23.36407 -46.66042 5952 ft 258 kts 210°
2026-05-01 11:35 -23.37911 -46.67089 5988 ft 259 kts 214°
2026-05-01 11:35 -23.39444 -46.68184 5966 ft 266 kts 214°
2026-05-01 11:35 -23.40981 -46.69274 5954 ft 260 kts 213°
2026-05-01 11:35 -23.42486 -46.70337 5953 ft 257 kts 214°
2026-05-01 11:36 -23.43778 -46.71628 5956 ft 253 kts 241°
2026-05-01 11:36 -23.44295 -46.73436 5983 ft 253 kts 272°
2026-05-01 11:36 -23.43944 -46.75277 5971 ft 246 kts 300°
2026-05-01 11:36 -23.42899 -46.76642 5959 ft 228 kts 328°
2026-05-01 11:37 -23.41506 -46.77284 5970 ft 210 kts 352°
2026-05-01 11:37 -23.40114 -46.77325 5951 ft 196 kts
2026-05-01 11:37 -23.38825 -46.76899 5948 ft 193 kts 30°
2026-05-01 11:37 -23.37695 -46.76098 5966 ft 195 kts 32°
2026-05-01 11:38 -23.36566 -46.75296 5971 ft 198 kts 33°
2026-05-01 11:38 -23.35612 -46.74131 5957 ft 218 kts 68°
2026-05-01 11:38 -23.35598 -46.72542 5965 ft 212 kts 109°
2026-05-01 11:38 -23.36544 -46.71262 5985 ft 226 kts 140°
2026-05-01 11:39 -23.37809 -46.70248 5928 ft 225 kts 142°
2026-05-01 11:39 -23.39073 -46.69274 5754 ft 220 kts 142°
2026-05-01 11:39 -23.40303 -46.68327 5516 ft 213 kts 142°
2026-05-01 11:39 -23.41487 -46.67413 5320 ft 204 kts 141°
2026-05-01 11:40 -23.42627 -46.66531 5125 ft 198 kts 142°
2026-05-01 11:40 -23.43739 -46.65673 4913 ft 193 kts 141°
2026-05-01 11:40 -23.44806 -46.64836 4666 ft 185 kts 140°
2026-05-01 11:40 -23.45819 -46.64042 4597 ft 178 kts 140°
2026-05-01 11:41 -23.46767 -46.63188 4501 ft 177 kts 121°
2026-05-01 11:41 -23.47073 -46.61956 4420 ft 170 kts 81°
2026-05-01 11:41 -23.46891 -46.60677 4363 ft 175 kts 79°
2026-05-01 11:41 -23.46686 -46.59395 4221 ft 167 kts 78°
2026-05-01 11:42 -23.46431 -46.58216 4146 ft 155 kts 74°
2026-05-01 11:42 -23.46139 -46.57101 4056 ft 153 kts 73°
2026-05-01 11:42 -23.45839 -46.55982 3835 ft 155 kts 73°
2026-05-01 11:42 -23.45533 -46.54845 3660 ft 156 kts 73°
2026-05-01 11:43 -23.45232 -46.53719 3467 ft 154 kts 74°
2026-05-01 11:43 -23.44925 -46.52588 3236 ft 155 kts 74°
2026-05-01 11:43 -23.44620 -46.51462 3032 ft 157 kts 75°
2026-05-01 11:44 -23.44010 -46.49190 2601 ft 156 kts 74°
2026-05-01 11:44 -23.43701 -46.48051 2475 ft 154 kts 74°
2026-05-01 11:44 -23.43436 -46.47057 2475 ft 112 kts 73°
2026-05-01 11:44 -23.43269 -46.46440 2477 ft 59 kts 73°
2026-05-01 11:45 -23.43186 -46.46132 2473 ft 39 kts 73°
2026-05-01 11:45 -23.43132 -46.45955 2474 ft 17 kts 57°
2026-05-01 11:45 -23.43051 -46.45921 2474 ft 13 kts 354°
2026-05-01 11:45 -23.43014 -46.45931 2473 ft 3 kts 345°
2026-05-01 11:46 -23.42990 -46.45937 2476 ft 5 kts 345°
2026-05-01 11:46 -23.42960 -46.45946 2477 ft 5 kts 345°
2026-05-01 11:46 -23.42929 -46.45955 2473 ft 5 kts 344°
2026-05-01 11:46 -23.42899 -46.45965 2477 ft 5 kts 343°
2026-05-01 11:47 -23.42869 -46.45974 2473 ft 5 kts 343°
2026-05-01 11:47 -23.42839 -46.45984 2475 ft 5 kts 343°
2026-05-01 11:47 -23.42805 -46.45995 2475 ft 5 kts 345°
2026-05-01 11:47 -23.42768 -46.46006 2475 ft 6 kts 345°
2026-05-01 11:48 -23.42731 -46.46017 2475 ft 6 kts 344°
2026-05-01 11:48 -23.42694 -46.46029 2473 ft 6 kts 343°
2026-05-01 11:48 -23.42657 -46.46042 2478 ft 6 kts 340°
2026-05-01 11:48 -23.42621 -46.46056 2480 ft 6 kts 340°
2026-05-01 11:49 -23.42585 -46.46072 2475 ft 6 kts 330°
2026-05-01 11:49 -23.42571 -46.46110 2473 ft 6 kts 269°
2026-05-01 11:49 -23.42582 -46.46159 2476 ft 11 kts 254°
2026-05-01 11:49 -23.42618 -46.46292 2473 ft 21 kts 253°
2026-05-01 11:50 -23.42659 -46.46445 2477 ft 21 kts 253°
2026-05-01 11:50 -23.42699 -46.46591 2477 ft 18 kts 253°
2026-05-01 11:50 -23.42735 -46.46725 2477 ft 18 kts 253°
2026-05-01 11:50 -23.42772 -46.46859 2475 ft 18 kts 253°
2026-05-01 11:51 -23.42808 -46.46993 2476 ft 18 kts 253°
2026-05-01 11:51 -23.42833 -46.47087 2476 ft 9 kts 260°
2026-05-01 11:51 -23.42794 -46.47132 2473 ft 9 kts 339°
2026-05-01 11:51 -23.42736 -46.47157 2479 ft 9 kts 323°
2026-05-01 11:52 -23.42731 -46.47205 2473 ft 7 kts 254°
2026-05-01 11:52 -23.42741 -46.47243 2473 ft 4 kts 253°
2026-05-01 11:52 -23.42745 -46.47258 2473 ft 0 kts 253°
2026-05-01 11:52 -23.42746 -46.47258 2473 ft 0 kts 253°